{"data":{"norad_id":65602,"intl_designator":"2025-207L","name":"STARLINK-35255","alt_names":[],"object_type":"PAYLOAD","status":"ACTIVE","operator":null,"country":"US","launch_date":"2025-09-13","launch_site_code":"AFWTR","launch_vehicle":null,"mission":null,"orbit_class":"UNKNOWN","rcs_meters":null,"size_class":null,"mass_kg":null,"dimensions":null,"purposes":["comms"],"wikipedia_slug":null,"has_3d_model":false,"image_url":null,"decayed_at":null,"tle_current":{"epoch":"2026-09-20T22:00:03.000096Z","epoch_age_seconds":75971,"freshness":"FRESH","line1":"1 65602U 25207L   26263.91670139 -.00012380  00000+0 -38181-3 0  9999","line2":"2 65602  97.2854 326.5104 0001699  89.5303  10.9998 15.33439999  5747","mean_motion":15.33439999,"eccentricity":0.0001699,"inclination_deg":97.2854,"raan_deg":326.5104,"arg_perigee_deg":89.5303,"mean_anomaly_deg":10.9998,"bstar":-0.00038181,"rev_number":574,"period_min":93.906510912658,"perigee_km":464.3953101864,"apogee_km":466.72079776574,"semimajor_km":6843.6950539761,"source":"CELESTRAK","updated_at":"2026-09-21T09:00:35.654963Z"}}}